Weather in Swietochlowice

Poland     50°17′52″N   18°54′21″E
temp.,
°C
wind,
m/s
gust,
m/s
humid.,
%
clouds,
%
prec.,
mm/h
press.,
hPa
HPBL,
m
27 february, sat
sat2701:00+5wnw4884100 1.6 1029687
04:00+4nw4887100 0.1 1029731
07:00+4nw4986100 0.1 1030754
10:00+4nw5882100 0.0 1031762
13:00+4nw4879100 0.0 1032712
16:00+3nw4779100 0.0 1033757
19:00+3nw4777100 0.1 1034741
22:00+3wnw3780100 0.1 1035390
28 february, sun
sun2801:00+2nw388896 0.1 1036451
04:00+2nw3687100 0.0 1035545
07:00+2nw2586100 0.0 1035492
10:00+3nw347798 0.0 1035655
13:00+5nw236895 0.0 1035749
16:00+6wnw23603 0.0 1033731
19:00+3wsw22731 0.0 103457
22:00+2wsw23790 0.0 103479
1 march, mon
mon101:00+1w23877 0.0 103576
04:00+3nw1394100 0.0 1034134
07:00+3nne1292100 0.0 103598
10:00+5nne227424 0.0 1036519
13:00+8ene116118 0.0 1036686
16:00+8e12610 0.0 1035762
19:00+5se22760 0.0 103648
22:00+4se22820 0.0 103653
2 march, tue
tue201:00+3se22850 0.0 103636
04:00+2s22870 0.0 103541
07:00+2ssw12840 0.0 103535
10:00+7sw25630 0.0 1034304
13:00+10sw36460 0.0 1033600
16:00+11sw24480 0.0 1032557
19:00+7sw12630 0.0 103230
22:00+5wsw26750 0.0 1033168
3 march, wed
wed301:00+4sw26770 0.0 1032164
04:00+3sw26780 0.0 1032164
07:00+2sw388122 0.0 1031210
10:00+7sw476479 0.0 1031354
13:00+11sw355339 0.0 1029481
16:00+11sw35550 0.0 1028520
19:00+8sw37740 0.0 1027188
22:00+6wsw35810 0.0 1028133